Location: Mannheim
(49.4880°N, 8.4650°E)
Time: 13:01:16
(UTC+02:00)

ISS - Pass Details

Date: 23 September 2022
Orbit: 414 x 417 km, 51.6° (Epoch: 01 October)

Event Time Altitude Azimuth Distance (km) Brightness Sun altitude
Rises 22:08:21 0° 285° (WNW) 2,366 1.2 -26.3°
Reaches altitude 10° 22:10:27 10° 288° (WNW) 1,502 0.0 -26.6°
Enters shadow 22:11:58 24° 292° (WNW) 909 -1.4 -26.8°
